Wetbulb
60.88 60.55 60.15 59.06 58.16 58.22 57.86 57.65 57.14 57.16 57.25 57.29 57.20 57.21 57.06 56.55 56.43 56.52 56.19 55.96 55.90 55.94 55.47 55.63 56.09 56.57 58.48 57.05 55.74 65.89 65.99 67.85 60.83 62.97 62.62 60.60 58.73 59.15 59.10 64.68 64.77 63.72 65.11 66.12 65.67 64.54 65.41
61.19 60.77 60.52 60.04 59.25 58.01 58.02 57.58 57.50 57.25 56.85 56.94 57.14 56.99 56.82 56.55 56.27 56.19 56.28 56.24 56.50 56.06 56.02 56.32 56.55 56.39 57.60 54.01 57.81 63.94 62.16 60.59 58.41 63.10 61.76 61.13 59.34 60.76 62.45 64.58 63.14 65.79 64.69 65.22 64.80 63.04 64.46
61.41 60.66 60.52 60.30 59.63 58.43 57.44 57.85 57.64 57.45 57.02 57.07 56.62 56.78 56.67 56.30 56.10 55.90 55.75 55.22 55.85 56.16 56.05 56.38 56.75 58.40 57.74 56.11 58.93 65.73 63.00 58.09 58.66 62.14 60.04 61.47 60.99 58.79 65.08 63.80 66.89 63.84 61.95 64.19 62.78 63.22 62.69
61.45 61.25 60.69 60.26 59.60 58.78 57.70 57.86 57.91 57.17 56.63 56.80 56.94 56.55 56.57 56.44 55.95 55.71 55.34 54.65 54.63 56.16 56.10 56.30 56.96 59.77 56.89 58.90 61.43 64.87 63.95 62.07 61.80 61.39 61.49 61.33 61.07 59.36 64.28 65.93 65.59 61.55 62.75 58.06 61.88 62.65 63.15
61.36 61.03 60.85 60.40 59.45 58.76 57.87 57.05 57.43 57.47 57.05 56.40 56.50 56.29 56.16 56.34 55.92 55.21 55.11 54.58 55.79 56.78 57.02 57.34 59.16 59.50 54.04 57.41 59.60 62.49 63.59 60.50 59.88 60.75 61.80 60.83 60.61 59.71 65.05 60.91 58.90 61.06 54.98 57.44 58.43 63.10 61.75
61.19 60.97 60.63 60.59 59.65 58.69 58.12 57.18 57.12 57.49 57.27 57.16 56.74 55.99 55.77 55.75 55.43 54.70 54.92 54.80 57.51 56.91 58.46 60.88 60.16 56.07 57.27 53.78 60.17 59.34 61.35 61.26 57.52 57.61 57.25 56.69 56.42 57.52 61.89 60.01 54.12 56.19 57.10 57.55 56.71 60.38 60.78
60.62 60.40 60.50 60.29 59.79 58.68 58.04 57.08 56.49 57.32 57.06 56.99 56.89 56.48 55.76 55.12 55.23 54.25 55.22 61.25 59.40 58.98 59.91 56.93 55.72 55.24 56.06 59.59 61.20 58.78 57.61 57.78 56.76 55.70 52.17 54.02 51.94 53.90 59.52 61.04 57.89 57.35 57.39 55.62 58.61 62.08 58.40
60.46 60.17 60.08 59.68 58.74 58.53 58.02 56.99 56.49 57.07 56.89 56.77 56.90 56.34 55.43 54.68 53.96 53.75 56.27 58.52 57.60 58.39 54.06 57.88 56.46 56.45 58.15 60.09 55.13 57.48 58.36 52.95 51.98 50.40 53.97 51.75 49.60 55.91 59.74 60.33 58.43 55.92 56.21 55.86 59.54 60.93 57.36
59.95 59.60 59.53 58.84 58.21 58.11 57.88 57.00 56.60 57.00 56.86 56.68 56.60 55.89 55.13 54.26 53.71 54.91 60.30 59.31 61.56 60.67 55.07 54.33 56.13 55.93 56.60 57.67 55.52 55.30 57.21 55.54 51.48 49.35 51.14 50.87 52.18 55.43 58.37 58.72 56.50 56.83 57.48 57.12 57.88 58.31 58.95
59.37 58.94 58.61 58.07 57.95 57.90 57.71 56.79 56.64 56.78 56.47 56.39 56.59 55.62 54.98 53.53 52.56 60.96 57.89 61.51 61.63 60.97 51.36 51.48 53.46 55.86 57.39 56.47 54.35 58.95 58.10 54.96 52.65 49.52 51.26 52.39 54.60 53.66 56.46 57.58 58.06 53.03 61.42 59.09 58.49 56.66 51.79
58.45 58.70 58.35 57.89 57.84 57.67 57.41 56.86 56.64 56.39 56.07 56.03 55.73 54.90 53.81 52.23 58.37 57.70 59.77 61.92 61.60 60.41 38.63 52.44 53.90 59.41 58.27 55.40 55.53 55.16 59.11 54.74 50.55 50.31 51.91 50.90 52.05 52.80 55.26 57.37 58.24 55.57 58.56 59.36 59.59 56.72 55.51
58.48 58.51 58.44 58.07 58.17 57.45 57.04 56.73 56.69 56.07 55.81 55.62 55.00 54.10 53.22 56.71 59.28 60.27 61.22 61.67 60.22 49.69 40.39 49.81 53.75 53.13 53.44 54.98 54.29 55.52 55.36 57.12 57.41 51.73 52.42 53.31 56.18 55.45 56.48 59.31 58.47 58.25 57.09 58.73 58.29 55.63 50.59
58.54 58.46 58.32 57.99 57.98 57.40 56.74 56.59 56.65 55.97 55.20 54.65 53.49 52.48 53.37 61.19 59.20 62.53 61.67 58.74 49.92 44.21 51.39 48.21 49.82 52.60 52.43 51.98 53.21 54.18 52.52 51.86 51.07 47.96 48.55 52.41 53.22 56.13 57.80 55.78 56.51 56.40 55.58 51.55 47.84 48.84 49.82
57.89 57.59 57.89 57.61 57.44 57.28 56.91 56.79 56.47 55.60 54.99 53.98 51.86 51.06 56.72 61.16 62.79 61.25 60.47 54.81 44.24 47.59 48.85 51.94 51.22 51.52 50.25 52.22 52.62 52.97 52.31 50.59 53.14 51.93 49.45 47.71 47.04 53.91 56.07 55.75 53.72 55.51 55.76 50.18 44.27 46.32 48.43
56.98 56.72 56.91 57.04 57.10 57.16 56.96 56.27 55.93 55.34 54.69 53.24 51.09 60.87 61.56 63.44 62.82 61.61 57.00 49.73 47.76 49.34 50.99 49.84 50.33 49.13 50.09 51.98 51.80 52.05 52.14 51.34 52.76 53.40 49.33 48.15 48.13 54.89 55.17 55.67 56.32 54.26 53.19 58.81 51.34 52.91 51.07
56.52 56.01 55.81 56.51 56.80 56.90 57.02 56.20 55.70 55.02 54.26 52.70 61.84 61.19 60.94 63.04 63.67 60.59 54.77 45.63 49.57 52.31 52.83 52.06 47.09 50.25 48.05 49.48 49.17 50.28 50.09 53.79 52.40 53.52 55.28 52.35 47.86 53.17 53.87 55.23 54.99 53.72 57.14 51.91 53.84 45.88 43.25
55.65 55.71 55.96 55.81 56.35 56.74 57.14 56.28 55.74 54.73 53.56 52.42 60.83 58.34 61.60 63.74 62.81 57.63 51.52 49.55 50.59 52.74 53.57 51.41 49.45 48.68 49.60 49.49 50.26 50.57 50.34 52.63 53.04 53.37 54.58 53.34 51.11 50.86 52.74 51.57 51.03 51.40 51.19 53.65 53.96 52.31 46.89
55.77 55.90 55.80 55.97 55.98 56.56 57.18 56.22 55.22 53.62 52.42 51.61 60.97 55.66 61.69 63.08 55.14 55.25 51.16 51.58 49.45 51.02 53.68 52.26 52.27 51.60 50.09 50.39 50.08 49.66 50.00 51.84 55.02 55.01 51.39 53.57 51.68 48.03 50.32 53.90 54.44 53.59 52.01 52.23 48.70 49.54 51.64
55.74 55.70 55.86 55.94 55.94 56.46 57.08 56.09 54.69 53.24 52.77 59.36 59.40 56.41 61.33 60.88 51.86 51.25 51.99 50.82 51.38 50.97 51.04 50.96 51.25 52.24 52.50 50.94 48.61 51.31 51.96 54.73 54.74 54.01 53.26 54.31 50.11 47.17 47.75 51.63 53.08 50.67 52.39 52.88 52.62 52.35 49.85
55.64 55.49 55.69 55.64 55.84 56.25 56.80 56.09 54.45 53.52 53.09 57.41 58.91 53.21 56.46 57.15 56.43 53.69 50.75 50.05 49.33 51.15 50.71 51.47 51.18 52.78 51.52 50.83 52.40 50.79 50.64 53.39 53.92 54.94 56.40 56.15 51.00 49.83 44.85 48.04 52.02 50.52 50.88 52.84 51.77 48.60 49.54
55.63 55.41 54.99 54.83 55.47 55.83 56.58 56.31 54.81 53.86 53.26 57.64 58.82 55.13 55.76 53.37 52.31 53.20 52.27 50.75 48.15 48.21 51.31 51.90 51.60 51.77 51.12 49.26 50.07 49.40 51.36 53.17 53.66 53.92 54.47 54.01 49.60 50.56 50.56 51.57 53.30 52.02 50.87 51.01 51.03 52.06 50.05
55.81 56.06 55.97 55.47 54.96 55.67 56.22 56.62 55.24 54.20 52.79 60.50 58.24 56.03 55.18 56.15 52.53 51.92 47.97 49.59 47.60 48.49 48.28 48.69 50.83 50.86 52.26 50.98 51.99 49.08 51.63 52.19 51.46 54.04 53.52 54.34 49.54 51.25 49.68 50.52 51.18 50.68 51.98 51.95 51.66 51.81 52.21
54.98 55.06 55.98 56.13 55.45 55.44 55.90 56.39 55.49 54.33 53.44 60.92 62.87 62.15 58.70 51.05 52.38 51.09 51.34 50.13 48.84 48.55 49.33 49.43 50.93 52.33 50.88 52.65 54.35 54.92 54.47 54.28 54.57 53.24 51.88 52.34 51.02 48.71 47.10 50.35 49.65 47.46 50.65 51.79 52.74 53.69 52.99
55.02 55.29 55.58 55.73 55.86 55.29 55.43 56.18 56.12 55.22 53.98 60.84 62.12 61.35 56.80 51.70 51.74 52.33 50.03 48.96 48.57 49.76 49.53 49.28 50.12 51.23 55.10 56.97 56.28 55.80 54.86 54.49 53.98 53.78 54.41 51.86 51.58 51.02 47.37 49.90 42.03 50.55 56.11 55.60 55.01 56.30 58.16
55.40 55.55 55.63 55.38 55.86 55.72 55.43 55.97 56.97 55.81 55.02 58.95 62.32 61.21 58.14 52.51 52.63 51.70 50.40 50.89 51.87 52.56 51.61 50.49 50.34 53.81 57.12 55.15 52.21 50.19 50.15 50.73 50.63 52.59 52.98 53.93 52.25 47.98 45.57 45.96 45.27 48.32 53.37 53.05 53.43 54.63 59.76
55.32 55.64 55.58 55.39 55.63 56.06 55.71 55.23 56.71 55.73 55.16 57.53 62.22 63.39 60.77 55.17 52.86 53.29 51.69 52.45 51.94 52.65 52.33 51.80 55.10 56.01 53.95 52.75 50.68 46.07 43.87 47.34 46.40 48.27 53.30 53.29 53.68 49.56 47.49 43.68 37.51 45.51 52.70 56.45 56.16 50.46 56.14
54.85 55.30 55.36 55.52 55.35 55.78 56.13 55.23 56.04 56.00 55.47 56.07 62.67 65.02 61.31 55.43 57.56 55.08 53.23 53.37 54.87 53.19 51.96 53.46 53.40 53.98 53.92 50.64 47.40 47.07 46.28 50.90 45.07 45.84 45.77 46.35 46.77 46.11 46.38 45.15 47.62 52.69 52.17 55.71 45.59 49.80 57.92
54.98 55.06 55.06 55.22 55.16 55.27 55.88 55.43 55.38 55.82 55.79 55.79 62.80 65.94 61.71 57.16 58.09 57.03 56.42 55.19 54.38 53.87 51.59 55.11 52.60 53.79 52.16 48.97 48.83 49.44 47.13 51.01 48.48 49.50 49.02 48.03 45.18 44.83 47.17 40.37 40.57 55.68 54.98 50.46 55.56 58.56 58.82
54.98 55.10 54.96 55.08 55.04 55.08 55.61 55.52 54.92 55.67 55.38 54.47 60.32 64.08 64.05 60.86 58.56 60.53 60.11 59.99 57.78 56.70 55.10 55.64 54.03 54.03 54.24 53.13 52.84 52.68 49.00 49.95 48.19 44.45 52.54 45.82 49.86 48.86 49.59 48.94 55.09 56.77 56.63 58.14 59.58 59.38 60.31
MSLP
1020.69 1020.33 1020.05 1019.84 1019.67 1019.37 1019.09 1018.82 1018.53 1018.25 1018.01 1017.71 1017.42 1017.15 1016.92 1016.68 1016.47 1016.25 1016.05 1015.93 1015.79 1015.61 1015.47 1015.32 1015.10 1014.99 1014.28 1011.09 1007.73 1007.85 1008.49 1008.94 1009.26 1008.78 1007.31 1006.57 1006.05 1005.46 1004.41 1004.80 1004.92 1006.03 1007.49 1008.87 1009.80 1010.54 1010.10
1020.80 1020.42 1020.07 1019.87 1019.63 1019.44 1019.11 1018.83 1018.58 1018.34 1018.06 1017.77 1017.44 1017.08 1016.81 1016.59 1016.37 1016.13 1015.88 1015.73 1015.61 1015.39 1015.25 1015.11 1014.99 1014.95 1013.28 1009.02 1007.01 1007.10 1007.67 1008.44 1008.11 1007.77 1006.73 1006.25 1005.55 1005.12 1004.57 1004.88 1005.15 1006.26 1007.94 1009.57 1010.51 1011.13 1011.03
1020.89 1020.54 1020.17 1019.87 1019.63 1019.39 1019.22 1018.85 1018.55 1018.30 1018.05 1017.70 1017.34 1016.97 1016.63 1016.39 1016.15 1015.92 1015.69 1015.55 1015.37 1015.07 1014.89 1014.78 1014.79 1014.07 1011.09 1007.68 1007.36 1006.85 1007.26 1007.37 1007.30 1006.95 1006.19 1005.93 1005.52 1005.26 1004.15 1004.33 1005.27 1006.78 1008.18 1009.82 1011.25 1011.61 1011.74
1020.88 1020.52 1020.23 1019.95 1019.65 1019.37 1019.16 1018.89 1018.51 1018.23 1017.96 1017.61 1017.21 1016.91 1016.61 1016.35 1016.11 1015.83 1015.57 1015.46 1015.29 1015.00 1014.74 1014.58 1014.43 1013.03 1008.93 1007.37 1007.39 1006.94 1006.87 1006.61 1006.73 1006.61 1005.92 1005.85 1005.81 1005.41 1004.26 1004.49 1004.99 1006.89 1008.09 1009.42 1011.29 1012.00 1012.30
1020.89 1020.53 1020.20 1019.92 1019.62 1019.33 1019.09 1018.87 1018.47 1018.14 1017.82 1017.53 1017.18 1016.89 1016.55 1016.29 1016.07 1015.82 1015.54 1015.27 1014.99 1014.80 1014.55 1014.41 1013.60 1011.44 1007.17 1008.24 1007.15 1006.63 1006.61 1006.20 1006.45 1006.33 1005.95 1006.05 1006.19 1005.08 1004.40 1004.10 1004.71 1006.19 1007.27 1009.11 1011.40 1012.44 1011.88
1020.93 1020.56 1020.19 1019.85 1019.61 1019.40 1019.12 1018.80 1018.44 1018.05 1017.72 1017.43 1017.09 1016.81 1016.44 1016.14 1015.89 1015.69 1015.31 1014.98 1014.53 1014.55 1014.08 1012.99 1011.50 1009.85 1007.01 1006.15 1006.29 1006.44 1006.51 1006.38 1006.19 1006.30 1006.45 1006.51 1005.66 1004.52 1003.61 1003.25 1003.05 1004.91 1006.66 1008.91 1010.62 1012.34 1013.04
1020.98 1020.60 1020.25 1019.91 1019.65 1019.40 1019.10 1018.77 1018.40 1017.98 1017.72 1017.32 1016.97 1016.61 1016.34 1016.01 1015.78 1015.61 1014.97 1013.88 1013.54 1012.36 1010.83 1008.75 1007.71 1006.63 1006.15 1006.06 1006.59 1006.13 1006.33 1006.34 1006.09 1005.91 1005.20 1005.31 1004.39 1003.05 1002.26 1002.24 1002.77 1005.04 1006.34 1008.76 1010.21 1011.69 1013.17
1021.08 1020.75 1020.37 1020.06 1019.76 1019.38 1019.05 1018.80 1018.40 1017.89 1017.55 1017.21 1016.83 1016.53 1016.30 1015.94 1015.66 1015.45 1014.97 1011.01 1009.55 1009.31 1007.77 1007.08 1006.92 1006.57 1006.08 1005.92 1005.59 1005.84 1006.08 1005.81 1005.76 1004.98 1004.41 1004.38 1003.23 1002.32 1002.03 1002.19 1002.48 1004.55 1006.78 1008.72 1010.19 1011.82 1012.71
1021.24 1020.88 1020.52 1020.19 1019.80 1019.32 1018.96 1018.69 1018.26 1017.74 1017.36 1017.10 1016.73 1016.45 1016.07 1015.77 1015.48 1014.87 1011.71 1009.67 1008.93 1008.87 1007.15 1006.44 1006.07 1005.61 1005.89 1005.99 1004.97 1005.33 1005.63 1004.90 1004.80 1004.35 1003.65 1002.77 1002.20 1002.14 1001.86 1002.49 1002.77 1003.02 1004.99 1006.77 1007.91 1010.88 1012.67
1021.39 1021.00 1020.59 1020.19 1019.78 1019.39 1019.01 1018.59 1018.15 1017.62 1017.27 1016.98 1016.68 1016.27 1015.91 1015.67 1015.44 1010.89 1009.53 1008.98 1008.90 1008.87 1006.21 1005.77 1005.46 1005.22 1005.45 1005.05 1004.24 1004.79 1005.17 1004.62 1004.11 1003.54 1003.20 1002.66 1001.60 1001.85 1001.69 1002.32 1002.43 1002.58 1004.22 1006.38 1007.98 1008.83 1010.35
1021.50 1021.10 1020.65 1020.18 1019.72 1019.37 1018.99 1018.50 1017.99 1017.54 1017.13 1016.73 1016.45 1016.12 1015.82 1015.85 1013.52 1010.20 1009.01 1008.69 1008.68 1008.62 1006.80 1005.35 1004.58 1005.06 1004.81 1004.21 1003.85 1004.83 1005.01 1004.58 1003.53 1003.23 1003.15 1002.15 1001.55 1001.91 1002.26 1002.05 1002.19 1003.07 1004.22 1006.09 1005.63 1007.23 1008.39
1021.59 1021.15 1020.76 1020.27 1019.77 1019.30 1018.88 1018.35 1017.83 1017.29 1016.86 1016.42 1016.09 1015.91 1015.69 1014.33 1012.95 1009.81 1008.91 1008.57 1008.53 1007.11 1005.24 1004.68 1004.65 1004.25 1004.36 1003.61 1003.77 1004.39 1004.78 1004.53 1003.46 1003.08 1003.01 1001.80 1002.07 1002.40 1002.05 1001.87 1002.57 1003.61 1004.37 1004.69 1005.59 1005.77 1006.19
1021.62 1021.20 1020.81 1020.28 1019.77 1019.22 1018.67 1018.14 1017.62 1017.06 1016.50 1016.04 1015.60 1015.40 1015.43 1012.39 1009.35 1009.03 1008.74 1008.22 1007.19 1005.39 1005.38 1004.77 1004.11 1003.85 1003.67 1003.25 1003.61 1004.20 1004.21 1004.10 1003.12 1002.84 1002.56 1002.36 1002.56 1002.21 1001.88 1001.73 1003.10 1003.94 1003.73 1004.67 1005.99 1005.28 1004.77
1021.70 1021.31 1020.79 1020.28 1019.71 1019.13 1018.55 1017.95 1017.39 1016.72 1016.05 1015.47 1014.89 1014.77 1013.11 1011.26 1009.71 1009.39 1008.58 1007.24 1005.55 1005.47 1004.79 1005.18 1004.56 1003.81 1003.64 1003.31 1003.44 1003.70 1003.65 1003.07 1002.84 1002.24 1001.33 1001.80 1001.77 1001.82 1002.22 1001.53 1002.32 1003.03 1002.98 1004.44 1004.01 1004.46 1005.03
1021.69 1021.24 1020.76 1020.27 1019.62 1019.05 1018.43 1017.77 1017.14 1016.41 1015.69 1015.01 1014.39 1012.51 1010.82 1009.43 1009.58 1009.38 1008.26 1005.40 1005.46 1005.39 1005.51 1004.70 1004.61 1003.64 1003.80 1003.88 1004.09 1003.34 1003.03 1002.48 1002.55 1002.85 1001.71 1001.07 1001.18 1001.53 1001.98 1002.11 1001.91 1002.12 1002.58 1002.51 1004.27 1003.54 1004.01
1021.63 1021.13 1020.70 1020.23 1019.60 1018.94 1018.31 1017.67 1016.94 1016.10 1015.40 1014.96 1012.90 1009.57 1008.68 1008.88 1008.94 1008.76 1007.16 1005.87 1006.28 1006.34 1005.93 1005.20 1004.89 1004.57 1003.72 1003.53 1003.80 1003.47 1003.29 1002.94 1003.28 1003.52 1003.21 1001.81 1001.13 1001.25 1001.96 1002.27 1002.12 1001.64 1001.81 1001.93 1001.65 1002.24 1003.21
1021.59 1021.08 1020.59 1020.08 1019.54 1018.90 1018.22 1017.62 1016.82 1015.86 1014.79 1014.37 1012.31 1008.10 1008.15 1008.22 1008.12 1007.37 1005.67 1006.31 1006.50 1006.63 1006.42 1005.47 1004.78 1004.36 1004.29 1003.94 1003.94 1003.91 1004.11 1004.26 1004.01 1004.06 1004.52 1003.22 1002.46 1001.06 1001.91 1001.72 1001.38 1001.81 1001.35 1001.09 1000.61 1000.91 1001.49
1021.45 1021.03 1020.50 1019.95 1019.44 1018.83 1018.19 1017.53 1016.88 1016.03 1014.39 1013.47 1010.09 1006.94 1007.67 1007.92 1006.95 1005.42 1005.50 1006.34 1007.11 1006.29 1006.38 1006.01 1005.67 1005.02 1004.87 1004.97 1004.36 1004.00 1004.02 1004.79 1004.91 1004.57 1004.35 1004.10 1002.85 1001.70 1001.09 1001.22 1001.60 1000.91 1000.97 1001.13 1000.57 1000.44 1000.21
1021.25 1020.81 1020.39 1019.90 1019.35 1018.74 1018.13 1017.50 1016.92 1016.42 1016.00 1014.18 1009.48 1007.43 1007.31 1007.23 1005.35 1005.15 1006.53 1006.53 1006.54 1006.02 1006.33 1006.18 1005.73 1006.03 1005.98 1005.23 1005.18 1005.10 1005.02 1006.07 1005.82 1005.43 1005.21 1004.64 1003.77 1002.11 1001.43 1000.95 1001.01 1000.89 1000.54 1000.81 1000.44 1000.41 1000.22
1021.09 1020.62 1020.23 1019.79 1019.27 1018.69 1018.11 1017.50 1016.87 1016.37 1015.98 1015.09 1009.67 1006.83 1006.67 1006.41 1005.90 1005.42 1006.09 1006.24 1006.38 1007.20 1006.70 1006.87 1006.79 1006.48 1006.14 1005.79 1005.71 1006.05 1005.35 1005.82 1006.39 1005.80 1006.51 1006.22 1004.37 1003.17 1002.87 1003.35 1002.52 1001.03 1001.02 1000.39 1000.38 1000.00 1000.07
1020.89 1020.45 1020.06 1019.66 1019.17 1018.65 1018.04 1017.47 1016.83 1016.13 1015.72 1015.02 1009.63 1006.41 1006.26 1005.42 1005.74 1006.08 1006.50 1006.73 1006.79 1006.71 1007.30 1007.27 1007.04 1006.79 1006.37 1005.96 1005.70 1005.71 1005.58 1005.86 1006.27 1006.73 1006.59 1005.86 1004.71 1004.19 1003.84 1004.10 1003.13 1001.41 1000.56 1000.47 1000.25 1000.18 999.80
1020.73 1020.28 1019.81 1019.46 1019.00 1018.55 1018.02 1017.45 1016.83 1015.95 1015.05 1013.48 1009.63 1007.64 1007.18 1006.45 1006.92 1006.59 1007.26 1006.99 1007.14 1007.31 1007.92 1007.03 1007.22 1007.33 1007.11 1006.65 1006.83 1007.23 1006.08 1005.76 1005.81 1005.94 1006.05 1005.65 1005.19 1005.02 1004.70 1004.53 1003.95 1001.97 1001.30 1000.79 1000.72 1000.81 1000.55
1020.47 1020.09 1019.55 1019.17 1018.76 1018.42 1017.99 1017.55 1016.94 1016.20 1015.06 1011.68 1010.35 1009.22 1008.24 1007.03 1006.69 1006.34 1006.29 1007.11 1007.66 1008.41 1008.70 1008.49 1008.27 1007.79 1007.21 1007.47 1007.62 1007.36 1007.15 1007.06 1006.47 1006.75 1006.14 1005.91 1005.39 1005.95 1004.65 1004.23 1003.91 1003.78 1001.93 1001.55 1001.30 1000.97 1000.84
1020.07 1019.72 1019.27 1018.89 1018.58 1018.26 1017.92 1017.55 1017.07 1016.67 1016.37 1014.03 1011.84 1010.79 1008.40 1006.65 1006.57 1006.25 1007.03 1007.82 1008.25 1008.78 1008.77 1008.75 1008.65 1008.22 1008.48 1008.52 1008.55 1008.05 1007.04 1007.30 1007.27 1006.76 1006.54 1006.34 1006.44 1005.97 1005.30 1006.45 1005.66 1004.14 1003.60 1003.33 1002.53 1002.73 1001.95
1019.67 1019.27 1018.94 1018.63 1018.37 1018.10 1017.81 1017.52 1017.17 1016.76 1016.39 1014.79 1012.34 1011.16 1008.92 1007.13 1006.37 1006.90 1007.44 1007.83 1008.53 1009.28 1008.91 1008.84 1009.02 1008.89 1008.98 1008.71 1008.03 1007.82 1007.76 1007.95 1007.97 1007.37 1006.71 1006.79 1007.00 1006.47 1006.63 1007.84 1008.48 1008.06 1006.33 1005.22 1004.39 1004.39 1004.22
1019.23 1018.86 1018.58 1018.30 1018.04 1017.88 1017.63 1017.35 1017.07 1016.70 1016.34 1015.24 1012.40 1012.41 1010.65 1008.26 1006.40 1006.81 1007.44 1007.97 1007.51 1007.79 1008.34 1008.65 1009.54 1009.36 1008.94 1008.04 1007.51 1008.19 1008.37 1007.40 1007.99 1008.07 1007.71 1007.64 1007.75 1007.71 1007.14 1007.69 1009.70 1010.54 1010.05 1007.79 1006.47 1006.91 1008.11
1018.75 1018.40 1018.16 1017.91 1017.74 1017.61 1017.33 1017.21 1017.00 1016.66 1016.39 1015.77 1012.50 1012.57 1011.25 1008.58 1007.18 1007.44 1007.34 1007.55 1008.22 1008.25 1007.87 1008.50 1008.89 1008.86 1008.75 1007.82 1007.44 1007.63 1007.95 1008.44 1008.49 1008.12 1008.69 1008.84 1008.70 1007.96 1007.65 1008.79 1009.25 1010.16 1010.14 1009.16 1008.07 1008.81 1008.13
1018.27 1017.95 1017.69 1017.53 1017.38 1017.34 1017.07 1016.95 1016.89 1016.61 1016.37 1015.82 1012.21 1012.23 1011.56 1008.89 1008.08 1008.43 1008.20 1008.33 1008.34 1008.37 1007.81 1008.71 1008.75 1008.47 1007.98 1007.86 1007.85 1008.01 1008.77 1008.79 1009.19 1008.57 1008.57 1008.21 1008.65 1008.07 1008.26 1009.97 1010.49 1009.94 1009.27 1009.67 1010.25 1009.38 1009.13
1017.78 1017.49 1017.26 1017.10 1016.95 1016.91 1016.77 1016.65 1016.72 1016.47 1016.27 1016.12 1012.59 1011.89 1011.99 1010.67 1008.77 1008.96 1009.14 1009.19 1008.92 1008.94 1008.66 1008.73 1008.53 1008.57 1008.19 1008.09 1008.55 1008.43 1008.87 1009.02 1009.19 1008.59 1009.31 1009.21 1008.70 1009.13 1009.06 1009.99 1010.84 1010.47 1010.40 1010.46 1010.37 1009.90 1009.93
Wind_Speed
13 12 11 11 12 12 12 11 11 11 11 12 11 11 10 10 9 9 8 8 8 9 8 8 9 10 11 10 9 11 6 16 16 19 20 18 15 15 13 9 6 7 5 10 14 6 7
13 13 12 11 11 12 13 12 11 11 12 12 11 11 10 9 9 9 9 8 9 8 9 8 8 8 11 15 5 3 9 16 17 21 18 17 13 16 10 8 4 8 9 15 11 7 3
11 12 13 12 11 11 12 13 12 11 10 11 11 10 9 8 9 9 9 9 9 8 8 7 8 10 12 3 4 4 12 16 17 19 16 17 11 12 10 9 11 4 10 12 10 14 5
11 10 11 11 11 11 12 13 13 11 11 10 11 10 10 10 9 10 10 10 10 10 8 7 7 12 11 5 7 5 12 13 13 17 16 14 9 16 17 4 8 7 8 8 12 13 7
11 12 10 10 11 11 13 12 13 11 10 11 11 11 11 11 10 11 10 11 10 9 8 8 10 11 5 4 10 8 10 13 12 10 10 7 11 15 14 11 12 11 6 10 6 8 9
11 11 11 10 10 12 11 12 13 12 11 10 10 11 12 12 12 11 11 8 6 8 9 10 10 9 7 11 11 9 10 11 14 12 11 12 11 15 14 14 13 15 13 9 7 9 5
12 12 12 12 11 12 12 13 14 13 12 12 11 10 11 13 12 11 12 7 9 10 12 11 9 6 6 8 10 9 10 14 11 12 15 18 14 17 19 20 6 4 4 9 8 12 4
12 13 13 12 13 12 12 13 13 13 12 12 12 11 13 13 12 10 9 9 10 10 6 6 4 5 4 14 12 11 14 13 13 14 19 13 17 18 18 11 6 10 13 13 11 15 7
14 13 12 12 12 13 12 11 12 12 12 12 12 12 12 12 12 5 11 12 7 8 9 7 5 8 11 10 12 14 17 11 13 17 17 14 15 19 18 7 9 14 13 17 22 17 8
14 13 12 12 12 12 12 12 13 12 12 13 12 13 11 12 5 3 8 1 7 5 8 14 9 6 6 12 9 14 15 7 11 15 13 14 10 17 9 14 14 2 12 9 12 15 4
14 13 12 13 12 12 13 14 14 13 13 13 14 14 12 7 14 11 6 7 8 5 3 3 7 4 11 11 16 11 12 8 11 11 10 13 9 11 15 17 8 6 11 26 13 11 13
13 13 13 14 13 14 14 15 16 15 15 14 13 11 11 8 8 13 8 9 7 7 2 7 5 8 12 10 9 12 12 10 8 10 11 14 7 11 16 14 8 4 6 8 8 6 7
16 15 13 14 14 14 16 16 17 17 16 19 15 10 8 10 3 3 7 8 5 5 4 4 2 12 13 11 11 14 13 14 10 11 11 12 11 14 13 15 8 11 8 4 1 4 2
15 15 15 15 14 14 16 17 18 19 19 20 16 7 12 10 7 8 9 13 2 5 10 4 4 6 8 4 15 14 13 13 12 12 11 12 15 14 10 12 11 15 13 7 5 3 5
14 14 16 16 15 15 15 19 19 20 20 20 17 7 7 5 10 7 10 8 7 7 6 3 9 10 14 14 7 6 10 12 10 11 13 14 16 19 15 14 15 15 16 19 8 8 8
15 16 16 15 16 16 16 20 20 22 21 19 8 9 5 5 6 7 12 9 6 4 7 10 4 6 8 8 7 6 4 8 4 3 12 7 7 14 12 12 15 18 12 16 13 9 4
16 16 15 16 16 17 16 20 21 23 24 14 9 6 6 8 7 10 0 8 7 6 5 9 4 3 2 3 8 16 4 4 0 9 7 16 10 10 12 18 17 14 15 13 16 14 10
14 14 14 15 15 16 16 20 19 21 30 1 12 2 6 5 10 4 7 5 5 4 5 2 5 9 5 2 9 3 7 1 7 10 9 12 9 14 15 12 17 17 17 16 12 17 14
13 14 15 15 15 16 16 18 18 17 16 9 8 7 5 8 7 6 4 8 5 5 5 6 3 5 2 5 6 4 5 3 1 9 9 9 10 10 11 13 8 14 15 18 19 14 16
13 14 15 15 15 16 16 15 17 16 14 6 8 6 6 7 6 7 4 2 4 3 2 5 6 5 5 10 7 7 6 7 2 6 8 6 15 15 7 13 16 19 19 16 20 15 14
14 14 16 16 15 15 16 16 16 18 12 6 9 4 7 3 6 3 4 3 2 0 1 2 4 7 9 4 6 8 4 10 9 8 6 8 14 12 12 9 19 20 21 20 18 17 17
15 15 14 14 15 15 15 15 16 20 22 6 7 5 5 1 0 6 6 3 3 3 3 1 8 1 6 4 8 5 10 8 1 5 9 11 12 13 14 10 15 15 10 8 17 16 17
14 16 15 14 13 13 14 15 14 18 16 5 3 4 8 9 8 9 8 4 5 2 2 4 6 8 5 10 10 6 7 5 4 8 8 7 12 4 17 12 14 16 12 11 14 16 16
13 14 15 14 13 12 13 14 13 12 11 8 4 7 7 8 7 2 4 2 4 2 2 3 5 8 8 2 5 12 6 0 8 6 11 7 10 11 9 8 11 6 11 8 9 11 5
14 14 15 14 13 11 11 13 13 11 11 9 5 6 7 11 7 7 6 5 5 6 5 3 4 7 4 7 9 6 6 7 4 6 6 5 8 7 13 18 5 20 7 3 7 7 9
16 14 15 14 12 12 10 11 12 11 11 8 4 5 7 8 5 6 6 3 6 4 8 4 4 4 6 10 8 9 3 3 3 4 4 9 6 11 11 13 7 6 26 21 11 9 6
17 15 14 13 12 11 10 10 12 11 11 8 4 2 6 8 3 2 5 3 2 3 5 4 2 7 6 9 7 4 3 4 3 5 5 3 7 7 8 9 9 10 11 22 10 6 9
15 14 13 11 11 11 10 9 10 11 11 7 4 1 7 7 7 3 1 2 5 5 6 8 8 7 6 3 3 3 5 1 7 10 4 3 4 8 8 5 9 10 3 3 6 6 8
14 13 11 10 10 10 11 8 9 10 9 7 6 3 4 6 8 3 6 3 4 5 7 4 7 3 6 3 1 3 4 4 6 6 5 6 6 5 9 4 5 7 9 7 9 7 7
Wind_Direction
358 357 0 1 357 356 353 350 344 345 345 346 343 342 338 334 328 323 319 312 309 302 296 293 291 299 277 217 257 110 125 169 191 202 214 205 213 220 238 226 189 144 131 96 134 96 79
354 357 359 1 3 358 356 353 345 347 352 350 346 344 337 332 324 317 313 310 310 296 287 280 286 293 251 248 46 112 144 162 189 202 205 207 211 230 306 240 166 106 150 130 138 130 98
342 354 358 1 1 359 356 356 353 353 348 342 346 341 335 324 317 311 307 300 297 288 275 268 270 259 262 235 333 247 178 180 193 208 201 213 226 231 236 204 127 99 136 134 145 154 141
344 341 350 355 360 358 359 355 358 357 348 341 338 340 335 328 321 313 307 298 284 278 261 252 245 253 276 47 317 216 180 189 184 212 226 203 235 252 263 124 143 158 153 148 167 165 172
347 348 344 354 359 357 0 358 354 351 349 342 340 337 333 330 326 319 311 297 274 251 245 233 230 232 223 133 205 158 205 178 182 207 216 152 236 234 220 229 202 166 241 135 161 167 146
353 351 353 353 354 356 357 357 350 354 344 336 333 335 333 330 325 318 307 281 176 201 212 212 264 250 221 197 124 165 168 180 181 172 186 206 221 220 243 217 208 198 201 133 146 177 189
1 1 358 353 352 353 360 358 350 349 342 335 334 329 329 327 320 314 300 203 203 199 212 293 145 289 133 117 157 171 173 176 189 195 203 200 211 210 208 224 108 351 320 130 153 151 98
357 0 359 357 357 350 356 357 339 338 340 337 328 326 326 325 317 301 268 265 37 346 308 185 242 266 299 173 167 154 178 186 195 206 223 183 217 217 238 292 236 189 133 186 148 126 94
359 360 353 358 352 348 349 348 329 332 330 328 321 324 323 321 324 244 246 298 336 326 252 127 182 196 177 225 184 164 199 221 202 215 211 214 203 235 230 230 249 238 143 187 142 128 111
356 354 356 355 348 345 336 334 330 331 326 323 320 322 319 322 283 269 250 116 276 319 258 137 165 118 183 224 193 160 211 220 206 217 206 244 232 207 197 240 234 149 114 60 163 167 135
353 351 355 347 343 342 336 332 331 330 324 318 319 316 309 285 324 263 14 276 324 240 33 42 88 90 154 229 123 178 204 221 233 214 219 213 201 200 215 225 237 63 303 155 185 136 140
347 350 349 340 342 348 339 333 331 327 320 320 317 309 307 212 221 265 292 292 257 234 23 127 158 184 188 215 209 141 191 260 307 233 212 272 205 210 224 226 181 81 218 41 346 201 191
350 345 343 339 339 339 348 334 331 325 320 323 312 285 246 310 357 322 279 268 273 148 212 130 167 195 235 161 116 174 189 206 201 200 200 221 220 217 236 198 135 222 187 264 100 274 187
345 343 340 339 336 335 339 338 332 325 322 324 313 299 192 266 301 274 264 245 193 334 47 115 257 262 347 60 151 179 190 208 236 249 189 216 178 200 215 229 179 211 218 188 204 183 242
341 343 341 338 333 333 335 342 331 325 327 328 314 203 203 174 226 264 268 267 34 18 334 308 197 241 170 145 272 205 222 225 167 243 283 200 247 172 186 228 237 185 231 244 241 254 204
342 343 346 340 334 331 335 344 332 329 331 335 266 211 120 195 214 248 257 38 94 5 309 256 251 126 278 160 205 218 207 115 308 313 316 327 253 158 194 206 235 269 207 227 241 262 273
342 340 340 343 335 331 334 345 335 333 331 334 246 227 104 222 245 244 101 71 101 53 314 313 347 299 13 276 69 287 279 132 302 153 258 283 261 198 201 202 223 204 247 245 269 250 191
339 336 336 338 333 333 333 346 339 338 333 227 277 253 135 239 250 287 103 76 300 98 166 108 298 327 313 329 281 212 132 237 39 300 210 229 280 249 194 212 223 241 216 237 235 242 279
336 335 337 334 332 334 335 342 339 342 358 312 262 105 195 243 271 128 145 126 342 10 51 1 15 316 315 293 289 172 122 101 150 243 17 346 235 245 261 170 199 233 231 220 250 252 259
330 337 336 332 331 334 334 334 336 338 348 290 278 196 156 245 338 322 171 120 145 109 19 334 318 274 245 232 215 240 216 129 210 357 9 300 278 292 342 333 301 195 235 242 226 238 232
325 325 333 333 330 332 334 333 335 332 341 279 248 324 13 217 173 22 288 29 290 260 142 249 163 298 331 332 273 224 218 182 197 139 232 261 273 284 293 258 280 282 208 218 227 254 266
315 318 321 326 328 330 332 333 337 331 330 253 307 295 174 2 95 244 132 90 318 63 321 21 283 50 300 310 84 306 299 275 309 201 246 250 263 282 282 182 267 276 248 250 215 234 255
322 317 318 317 323 329 329 332 340 339 330 298 24 260 275 124 229 243 88 51 24 31 114 318 310 276 239 48 338 1 279 277 308 275 286 280 281 329 267 256 201 250 253 231 249 242 240
306 309 315 317 316 327 327 328 337 346 352 306 9 291 264 251 234 218 81 116 106 74 1 358 267 266 53 3 247 260 268 278 255 262 251 255 263 262 280 3 271 87 36 333 290 2 359
305 307 310 312 311 315 325 326 327 337 339 297 322 289 276 267 209 135 186 121 161 151 223 346 50 344 279 256 249 224 223 226 317 257 296 330 286 266 291 189 355 334 60 355 319 22 359
303 302 302 302 302 308 314 319 321 329 333 286 272 312 274 281 215 167 177 212 266 181 164 142 136 303 253 253 221 236 167 241 159 248 253 338 301 279 244 300 192 200 299 320 299 163 327
301 299 298 294 293 299 303 313 315 322 331 309 323 306 272 258 87 180 233 157 26 304 303 136 146 198 238 245 261 263 288 18 196 231 342 154 288 273 281 311 84 173 171 297 261 31 4
298 297 293 286 286 291 299 300 306 313 328 311 337 116 294 262 106 225 156 166 182 231 301 84 234 195 222 271 286 133 259 182 283 290 256 263 254 223 184 94 303 5 81 11 348 324 1
297 295 289 278 276 282 290 288 296 300 313 316 260 150 273 259 48 60 45 47 13 3 316 156 329 319 1 292 210 343 218 218 247 274 149 257 304 1 340 58 80 34 70 53 6 23 2